Погода в Кисловке

Украина / Харьковская область     49°38′31″N   37°54′03″E
темп.,
°C
ветер,
м/с
пор.,
м/с
влажн.,
%
обл.,
%
осадки,
мм/ч
давл.,
гПа
погр.,
м
17 апреля, сб
сб1700:00+9ю376784 0.0 1018237
03:00+8зсз227682 0.0 101867
06:00+7ююз238762 0.5 1018148
09:00+9зюз55707 0.5 1019705
12:00+12юз454537 0.0 10191807
15:00+11юз675284 0.0 10191645
18:00+9зюз565985 0.0 10201071
21:00+8юз366999 0.1 1020486
18 апреля, вс
вс1800:00+8юз3774100 0.1 1020380
03:00+6юз367787 0.1 1020200
06:00+7юз2577100 0.0 1020214
09:00+10ююз346290 0.0 1020595
12:00+12зюз2350100 0.2 10191432
15:00+13ю244798 0.3 10181708
18:00+12всв115698 0.0 101858
21:00+10в335999 0.0 101835
19 апреля, пн
пн1900:00+8вюв486536 0.0 1018170
03:00+8юв2368100 0.0 101743
06:00+8вюв236995 0.0 101664
09:00+12юв3357100 0.0 1017430
12:00+15ююв2342100 0.0 10162197
15:00+15в2241100 0.0 10151797
18:00+14вюв2351100 0.0 1015243
21:00+11в346691 0.1 101563
20 апреля, вт
вт2000:00+9в4873100 0.0 1014142
03:00+9в51275100 0.1 1013343
06:00+8всв71387100 0.0 1010512
09:00+9всв81588100 0.9 1007690
12:00+9в101893100 5.0 1002843
15:00+11вюв101996100 10.6 9971071
18:00+14ююз8148268 4.1 996977
21:00+11ю8158277 4.4 998699
21 апреля, ср
ср2100:00+10ююв81487100 0.3 9991385
03:00+9ю81392100 1.6 1000808
06:00+6зюз91387100 0.7 10051089
09:00+6юз71391100 0.9 10101274
12:00+9юз81172100 0.1 10131272
15:00+11юз81064100 0.1 10161327
18:00+9юз4875100 0.0 1018785
21:00+8зюз117254 0.0 101910